User: anonymous   Login
Location: Ciudad Delicias
(28.2170°N, 105.4670°W)
Time: 15:12:23
(UTC-07:00)
Language:

ETS-7 - Orbit

View from above orbital plane
View from above orbital plane
View from above satellite
View from above satellite

Ground track
Ground track

The orbit data is extracted from the following two-line orbital elements,

1 25064U 97074B   14326.44272692  .00037820  00000-0  53181-3 0  3092
2 25064 034.9615 308.7098 0003851 174.6651 321.2911 15.55612534945766
Epoch (UTC): 22 November 2014 10:37:31
Eccentricity: 0.0003851
inclination: 34.9615°
perigee height: 398 km
apogee height: 403 km
right ascension of ascending node: 308.7098°
argument of perigee: 174.6651°
revolutions per day: 15.55612534
mean anomaly at epoch: 321.2911°
orbit number at epoch: 94576

The dashed part of the orbit path shows where the satellite is in the earth's shadow,  

DLR